DW9945 Weather Reports


Display with metric or nautical units.
time (UTC)temp
F
wind
direction
speed
MPH
gust
MPH
rain 1hr
in
rain 24hr
in
rain mn
in
humidity
%
barometer
mb
20260831110007 82 251 3.0 7.0 0.00 0.00 0.00 32 1017.4
20260831105017 82 225 3.0 7.0 0.00 0.00 0.00 32 1017.3
20260831104517 82 174 3.0 10.0 0.00 0.00 0.00 32 1017.3
20260831103518 82 155 2.0 5.0 0.00 0.00 0.00 32 1017.4
20260831103017 82 178 2.0 3.0 0.00 0.00 0.00 33 1017.3
20260831102517 82 201 5.0 9.0 0.00 0.00 0.00 32 1017.3
20260831102017 82 189 1.0 5.0 0.00 0.00 0.00 32 1017.4
20260831101017 81 220 0.0 3.0 0.00 0.00 0.00 33 1017.4
20260831100507 80 78 2.0 7.0 0.00 0.00 0.00 33 1017.4
20260831095519 80 54 2.0 5.0 0.00 0.00 0.00 34 1017.4
20260831094519 79 86 3.0 8.0 0.00 0.00 0.00 34 1017.4
20260831094019 79 154 2.0 6.0 0.00 0.00 0.00 34 1017.4
20260831093508 79 118 5.0 8.0 0.00 0.00 0.00 34 1017.6
20260831093020 78 94 6.0 9.0 0.00 0.00 0.00 34 1017.5
20260831091519 78 12 2.0 6.0 0.00 0.00 0.00 34 1017.5
20260831090520 77 78 3.0 7.0 0.00 0.00 0.00 35 1017.5
20260831085519 76 93 3.0 8.0 0.00 0.00 0.00 36 1017.4
20260831085018 76 60 3.0 5.0 0.00 0.00 0.00 36 1017.4
20260831084519 76 70 3.0 7.0 0.00 0.00 0.00 36 1017.4
20260831084018 75 80 4.0 9.0 0.00 0.00 0.00 36 1017.4
20260831083519 75 81 3.0 9.0 0.00 0.00 0.00 37 1017.4
20260831083019 74 71 2.0 8.0 0.00 0.00 0.00 38 1017.4
20260831082519 74 79 5.0 9.0 0.00 0.00 0.00 37 1017.5
20260831082008 74 76 5.0 9.0 0.00 0.00 0.00 39 1017.5
20260831081519 73 41 4.0 7.0 0.00 0.00 0.00 39 1017.5
20260831081019 73 70 3.0 8.0 0.00 0.00 0.00 40 1017.4
20260831080019 72 58 4.0 8.0 0.00 0.00 0.00 40 1017.5
20260831075519 72 21 2.0 5.0 0.00 0.00 0.00 41 1017.4
20260831075008 72 32 3.0 5.0 0.00 0.00 0.00 41 1017.4
20260831074519 71 13 4.0 7.0 0.00 0.00 0.00 42 1017.3
20260831073519 71 12 3.0 7.0 0.00 0.00 0.00 43 1017.3
20260831073008 70 14 3.0 7.0 0.00 0.00 0.00 44 1017.3
20260831072019 69 18 5.0 7.0 0.00 0.00 0.00 45 1017.2
20260831071518 69 8 5.0 8.0 0.00 0.00 0.00 45 1017.2
20260831071018 69 20 4.0 8.0 0.00 0.00 0.00 46 1017.2
20260831070019 68 11 3.0 7.0 0.00 0.00 0.00 47 1017.1
20260831065518 67 10 3.0 6.0 0.00 0.00 0.00 48 1017.0
20260831064519 67 4 3.0 5.0 0.00 0.00 0.00 48 1017.1
20260831064019 67 19 3.0 5.0 0.00 0.00 0.00 48 1017.1
20260831063019 66 29 4.0 8.0 0.00 0.00 0.00 49 1017.0
20260831062519 66 30 5.0 8.0 0.00 0.00 0.00 50 1017.0
20260831062019 64 12 5.0 8.0 0.00 0.00 0.00 51 1017.0
20260831061508 64 17 5.0 7.0 0.00 0.00 0.00 52 1017.0
20260831061018 64 11 3.0 7.0 0.00 0.00 0.00 52 1016.9
20260831060518 64 11 3.0 7.0 0.00 0.00 0.00 51 1016.9
20260831055519 64 27 3.0 6.0 0.00 0.00 0.00 51 1017.0
20260831055019 64 25 3.0 6.0 0.00 0.00 0.00 52 1017.0
20260831054519 63 30 3.0 5.0 0.00 0.00 0.00 53 1016.9
20260831054019 63 21 3.0 5.0 0.00 0.00 0.00 53 1016.8
20260831053519 63 5 3.0 5.0 0.00 0.00 0.00 53 1016.8
20260831052518 64 27 0.0 3.0 0.00 0.00 0.00 51 1016.8
20260831052019 64 27 2.0 3.0 0.00 0.00 0.00 51 1016.8
20260831051519 64 22 3.0 5.0 0.00 0.00 0.00 51 1016.9
20260831051008 64 12 1.0 3.0 0.00 0.00 0.00 52 1016.9
20260831050519 64 12 0.0 0.0 0.00 0.00 0.00 51 1016.8
20260831050019 66 16 0.0 2.0 0.00 0.00 0.00 50 1016.7
20260831045519 66 15 1.0 3.0 0.00 0.00 0.00 50 1016.7
20260831045019 66 25 3.0 6.0 0.00 0.00 0.00 50 1016.7
20260831044519 65 29 3.0 5.0 0.00 0.00 0.00 51 1016.7
20260831044018 65 37 3.0 5.0 0.00 0.00 0.00 52 1016.6
20260831043519 65 16 3.0 3.0 0.00 0.00 0.00 51 1016.6
20260831043018 66 352 3.0 3.0 0.00 0.00 0.00 50 1016.6
20260831042019 67 26 3.0 6.0 0.00 0.00 0.00 50 1016.4
20260831041507 66 42 3.0 9.0 0.00 0.00 0.00 51 1016.4
20260831041019 65 20 3.0 5.0 0.00 0.00 0.00 52 1016.4
20260831040519 65 20 3.0 5.0 0.00 0.00 0.00 52 1016.5
20260831040008 66 13 3.0 5.0 0.00 0.00 0.00 51 1016.6
20260831035518 66 0 3.0 5.0 0.00 0.00 0.00 50 1016.5
20260831035008 67 14 2.0 5.0 0.00 0.00 0.00 49 1016.5
20260831034508 68 16 3.0 5.0 0.00 0.00 0.00 49 1016.4
20260831034018 68 25 3.0 5.0 0.00 0.00 0.00 49 1016.3
20260831033519 67 29 3.0 5.0 0.00 0.00 0.00 50 1016.2
20260831033019 67 25 3.0 7.0 0.00 0.00 0.00 50 1016.2
20260831032508 67 31 3.0 7.0 0.00 0.00 0.00 52 1016.2
20260831032018 66 16 3.0 5.0 0.00 0.00 0.00 52 1016.2
20260831031508 66 6 3.0 5.0 0.00 0.00 0.00 51 1016.3
20260831031019 67 5 3.0 3.0 0.00 0.00 0.00 51 1016.3
20260831030518 67 5 3.0 3.0 0.00 0.00 0.00 50 1016.3
20260831030019 68 6 3.0 3.0 0.00 0.00 0.00 49 1016.3
20260831025518 68 19 3.0 5.0 0.00 0.00 0.00 49 1016.3
20260831025019 68 32 3.0 5.0 0.00 0.00 0.00 49 1016.2
20260831024018 68 8 3.0 6.0 0.00 0.00 0.00 50 1016.2
20260831023519 68 15 3.0 5.0 0.00 0.00 0.00 50 1016.3
20260831023019 68 0 2.0 5.0 0.00 0.00 0.00 50 1016.1
20260831022518 68 2 3.0 5.0 0.00 0.00 0.00 50 1016.1
20260831021518 67 25 2.0 5.0 0.00 0.00 0.00 51 1016.0
20260831021019 67 9 3.0 7.0 0.00 0.00 0.00 52 1016.0
20260831020518 67 0 2.0 5.0 0.00 0.00 0.00 52 1016.0
20260831020024 67 349 3.0 5.0 0.00 0.00 0.00 52 1016.1
20260831014519 68 353 3.0 5.0 0.00 0.00 0.00 51 1016.1
20260831013518 69 17 0.0 3.0 0.00 0.00 0.00 50 1016.1
20260831012519 69 19 2.0 3.0 0.00 0.00 0.00 49 1016.1
20260831011518 70 14 2.0 5.0 0.00 0.00 0.00 48 1016.1
20260831011008 71 26 3.0 5.0 0.00 0.00 0.00 47 1016.1
20260831010008 70 341 6.0 8.0 0.00 0.00 0.00 48 1016.2
20260831005508 70 326 3.0 5.0 0.00 0.00 0.00 48 1016.1
20260831005007 70 342 3.0 5.0 0.00 0.00 0.00 47 1016.1
20260831004507 71 334 4.0 5.0 0.00 0.00 0.00 47 1016.1
20260831004008 71 331 3.0 5.0 0.00 0.00 0.00 46 1016.1
20260831003507 72 349 3.0 5.0 0.00 0.00 0.00 45 1016.1
20260831003008 72 346 5.0 6.0 0.00 0.00 0.00 46 1016.1
20260831002508 71 334 7.0 9.0 0.00 0.00 0.00 47 1016.0
20260831002007 71 340 5.0 8.0 0.00 0.00 0.00 47 1015.9
20260831001508 71 356 3.0 5.0 0.00 0.00 0.00 47 1015.9
20260831000508 70 20 3.0 5.0 0.00 0.00 0.00 47 1016.0
20260830235509 70 6 2.0 3.0 0.00 0.00 0.00 47 1016.0
20260830234508 70 342 0.0 0.0 0.00 0.00 0.00 47 1016.0
20260830234007 71 342 0.0 0.0 0.00 0.00 0.00 46 1016.0
20260830233508 71 42 0.0 0.0 0.00 0.00 0.00 46 1016.1
20260830233007 72 42 0.0 0.0 0.00 0.00 0.00 45 1016.1
20260830232507 72 31 0.0 0.0 0.00 0.00 0.00 45 1016.1
20260830231508 73 18 3.0 8.0 0.00 0.00 0.00 44 1016.1
20260830230507 72 21 5.0 8.0 0.00 0.00 0.00 45 1016.0
20260830230008 72 350 6.0 8.0 0.00 0.00 0.00 44 1015.9
20260830225507 73 4 3.0 7.0 0.00 0.00 0.00 44 1015.8
20260830225007 73 32 5.0 8.0 0.00 0.00 0.00 44 1015.8
20260830224508 73 17 5.0 7.0 0.00 0.00 0.00 43 1015.8
20260830224007 74 0 3.0 6.0 0.00 0.00 0.00 43 1015.8
20260830223507 74 38 3.0 8.0 0.00 0.00 0.00 43 1015.8
20260830223008 74 15 2.0 5.0 0.00 0.00 0.00 43 1015.8
20260830222007 74 15 3.0 5.0 0.00 0.00 0.00 42 1015.8
20260830221007 75 45 3.0 6.0 0.00 0.00 0.00 42 1015.9
20260830220507 75 38 3.0 6.0 0.00 0.00 0.00 42 1015.9
20260830220008 75 51 2.0 5.0 0.00 0.00 0.00 42 1015.8
20260830215007 75 32 3.0 5.0 0.00 0.00 0.00 42 1015.7
20260830213508 75 23 1.0 3.0 0.00 0.00 0.00 42 1015.7
20260830213007 76 23 2.0 3.0 0.00 0.00 0.00 42 1015.7
20260830212007 76 23 1.0 3.0 0.00 0.00 0.00 41 1015.6
20260830211507 76 23 2.0 3.0 0.00 0.00 0.00 41 1015.5
20260830210008 78 338 3.0 5.0 0.00 0.00 0.00 38 1015.5
20260830204507 76 313 6.0 9.0 0.00 0.00 0.00 35 1015.5
20260830204006 77 334 3.0 3.0 0.00 0.00 0.00 32 1015.4
20260830203508 78 268 0.0 0.0 0.00 0.00 0.00 31 1015.3
20260830203008 79 232 0.0 3.0 0.00 0.00 0.00 30 1015.2
20260830202507 80 239 0.0 2.0 0.00 0.00 0.00 30 1015.1
20260830202007 80 236 2.0 3.0 0.00 0.00 0.00 30 1015.1
20260830201007 81 246 2.0 5.0 0.00 0.00 0.00 30 1015.2
20260830200508 81 230 3.0 5.0 0.00 0.00 0.00 29 1015.1
20260830195007 82 251 2.0 5.0 0.00 0.00 0.00 29 1014.9
20260830194507 82 238 4.0 7.0 0.00 0.00 0.00 28 1014.8
20260830194007 82 237 5.0 8.0 0.00 0.00 0.00 28 1014.8
20260830193507 82 230 4.0 9.0 0.00 0.00 0.00 28 1014.7
20260830193008 83 243 5.0 9.0 0.00 0.00 0.00 28 1014.6
20260830192007 83 243 5.0 8.0 0.00 0.00 0.00 27 1014.5
20260830191507 83 241 5.0 9.0 0.00 0.00 0.00 27 1014.5
20260830191007 84 245 5.0 9.0 0.00 0.00 0.00 27 1014.4
20260830190507 84 244 6.0 10.0 0.00 0.00 0.00 27 1014.4
20260830190007 84 237 4.0 8.0 0.00 0.00 0.00 27 1014.4
20260830184507 85 244 5.0 8.0 0.00 0.00 0.00 26 1014.1
20260830184007 85 241 4.0 10.0 0.00 0.00 0.00 26 1014.1
20260830183507 85 237 6.0 10.0 0.00 0.00 0.00 25 1014.1
20260830183006 86 227 6.0 13.0 0.00 0.00 0.00 25 1014.0
20260830182507 86 245 7.0 12.0 0.00 0.00 0.00 25 1014.0
20260830182006 86 242 6.0 12.0 0.00 0.00 0.00 25 1013.9
20260830180511 87 243 6.0 12.0 0.00 0.00 0.00 24 1013.9
20260830180007 87 254 6.0 12.0 0.00 0.00 0.00 25 1013.9
20260830175507 87 250 7.0 15.0 0.00 0.00 0.00 24 1013.9
20260830175007 87 229 9.0 13.0 0.00 0.00 0.00 24 1014.0
20260830174507 87 222 9.0 14.0 0.00 0.00 0.00 24 1013.9
20260830173007 88 236 9.0 17.0 0.00 0.00 0.00 24 1013.9
20260830172507 88 234 7.0 13.0 0.00 0.00 0.00 23 1013.9
20260830172007 88 241 7.0 16.0 0.00 0.00 0.00 24 1013.9
20260830171507 88 235 9.0 20.0 0.00 0.00 0.00 24 1013.9
20260830170007 88 209 9.0 14.0 0.00 0.00 0.00 23 1013.9
20260830165507 88 222 7.0 14.0 0.00 0.00 0.00 24 1013.9
20260830165007 88 236 10.0 20.0 0.00 0.00 0.00 23 1014.0
20260830164507 88 236 9.0 13.0 0.00 0.00 0.00 23 1013.9
20260830164006 88 229 7.0 14.0 0.00 0.00 0.00 23 1014.0
20260830163506 88 217 7.0 14.0 0.00 0.00 0.00 24 1013.9
20260830163007 88 214 8.0 16.0 0.00 0.00 0.00 23 1014.0
20260830162507 88 242 12.0 20.0 0.00 0.00 0.00 24 1014.0
20260830162007 88 236 13.0 20.0 0.00 0.00 0.00 24 1014.0
20260830161507 88 191 7.0 18.0 0.00 0.00 0.00 24 1014.0
20260830161007 88 206 10.0 18.0 0.00 0.00 0.00 24 1014.0
20260830160506 88 251 9.0 16.0 0.00 0.00 0.00 24 1014.1
20260830160007 88 225 9.0 20.0 0.00 0.00 0.00 24 1014.1
20260830155507 88 230 10.0 17.0 0.00 0.00 0.00 24 1014.3
20260830155007 88 234 13.0 21.0 0.00 0.00 0.00 24 1014.2
20260830154006 89 232 10.0 20.0 0.00 0.00 0.00 24 1014.3
20260830153506 89 218 8.0 15.0 0.00 0.00 0.00 24 1014.2
20260830152506 88 209 8.0 17.0 0.00 0.00 0.00 25 1014.2
20260830152007 88 214 7.0 18.0 0.00 0.00 0.00 25 1014.3
20260830151006 87 227 6.0 16.0 0.00 0.00 0.00 25 1014.5
20260830150507 88 230 14.0 20.0 0.00 0.00 0.00 25 1014.6
20260830150007 88 240 9.0 14.0 0.00 0.00 0.00 25 1014.5
20260830145506 88 249 8.0 17.0 0.00 0.00 0.00 26 1014.5
20260830145006 88 231 7.0 14.0 0.00 0.00 0.00 25 1014.5
20260830144507 88 220 8.0 14.0 0.00 0.00 0.00 25 1014.6
20260830144007 88 236 9.0 17.0 0.00 0.00 0.00 25 1014.7
20260830143506 88 237 9.0 16.0 0.00 0.00 0.00 25 1014.8
20260830143007 88 197 7.0 13.0 0.00 0.00 0.00 25 1014.7
20260830142507 87 225 7.0 14.0 0.00 0.00 0.00 26 1015.0
20260830142007 87 245 6.0 13.0 0.00 0.00 0.00 27 1015.0
20260830141506 87 226 10.0 18.0 0.00 0.00 0.00 26 1015.1
20260830141007 88 230 12.0 20.0 0.00 0.00 0.00 26 1015.1
20260830140507 88 237 7.0 15.0 0.00 0.00 0.00 26 1015.0
20260830140007 87 233 6.0 15.0 0.00 0.00 0.00 27 1015.1
20260830135507 87 257 9.0 16.0 0.00 0.00 0.00 27 1015.3
20260830135007 87 202 6.0 14.0 0.00 0.00 0.00 28 1015.3
20260830134507 86 186 7.0 14.0 0.00 0.00 0.00 28 1015.3
20260830134007 87 217 4.0 8.0 0.00 0.00 0.00 28 1015.4
20260830133507 86 230 5.0 12.0 0.00 0.00 0.00 29 1015.5
20260830133007 85 210 11.0 18.0 0.00 0.00 0.00 28 1015.4
20260830132506 86 199 9.0 14.0 0.00 0.00 0.00 29 1015.5
20260830131506 85 243 7.0 15.0 0.00 0.00 0.00 29 1015.6
20260830131006 85 278 6.0 12.0 0.00 0.00 0.00 29 1015.7
20260830130507 85 242 8.0 16.0 0.00 0.00 0.00 28 1015.9
20260830130007 85 203 6.0 17.0 0.00 0.00 0.00 28 1015.8
20260830125506 85 184 7.0 14.0 0.00 0.00 0.00 28 1016.0
20260830125006 85 252 5.0 12.0 0.00 0.00 0.00 29 1015.9
20260830124507 84 268 5.0 12.0 0.00 0.00 0.00 29 1016.0
20260830123506 84 221 5.0 12.0 0.00 0.00 0.00 29 1016.1
20260830123007 84 274 6.0 15.0 0.00 0.00 0.00 29 1016.2
20260830122506 84 224 6.0 15.0 0.00 0.00 0.00 29 1016.3
20260830121507 84 249 4.0 9.0 0.00 0.00 0.00 29 1016.2
20260830121006 83 221 6.0 12.0 0.00 0.00 0.00 29 1016.3
20260830120506 83 207 8.0 13.0 0.00 0.00 0.00 29 1016.3
20260830120007 83 229 7.0 13.0 0.00 0.00 0.00 29 1016.4
20260830115506 83 224 6.0 14.0 0.00 0.00 0.00 30 1016.5
20260830115007 83 221 7.0 14.0 0.00 0.00 0.00 29 1016.5
20260830114507 82 229 8.0 13.0 0.00 0.00 0.00 30 1016.6
20260830114006 82 203 8.0 16.0 0.00 0.00 0.00 29 1016.7
20260830113506 82 209 9.0 16.0 0.00 0.00 0.00 29 1016.7
20260830113007 82 198 9.0 15.0 0.00 0.00 0.00 30 1016.7
20260830112506 82 212 9.0 14.0 0.00 0.00 0.00 31 1016.7
20260830112006 82 257 5.0 14.0 0.00 0.00 0.00 31 1016.7
20260830111506 81 247 5.0 12.0 0.00 0.00 0.00 31 1016.7
20260830110506 81 222 6.0 14.0 0.00 0.00 0.00 32 1016.9